[[{"header":{"parameterUnit":"m.s-1","parameterCategory":1,"la1":30.2991,"la2":30.254,"lo1":-89.0895,"lo2":-89.0444,"dy":0.0017,"dx":0.0017,"nx":28,"ny":28,"refTime":"2024-07-31T09:00:00:Z","depth":0,"parameterNumber":2,"parameterNumberName":"U-component_of_WINDS"},"data":[0,0,0,0,0,0,0,0,0,0,0,0,0,0,0,0,0,0,0,0,0,0,0,0,0,0,0,0,0,0,0,0,0,0,0,0,0,0,0,0,0,0,0,0,0,0,0,0,0,0,0,0,0,0,0,0,0,0,1.3144,1.3144,0,1.3185,1.3186,1.3186,1.3173,1.3172,1.3171,1.317,1.3212,1.3214,1.3216,0,0,0,0,0,0,0,0,0,0,0,0,0,1.3051,1.3053,1.3144,1.3144,1.3145,1.3185,1.3186,1.3186,1.3173,1.3172,1.3171,1.317,1.3211,1.3214,1.3216,0,0,0,0,0,0,0,0,0,0,0,0,0,1.3092,1.3053,1.3144,1.3143,1.3143,1.3185,1.3186,1.3186,1.3173,1.3172,1.3171,1.3169,1.3211,1.3213,1.3216,1.3261,0,0,1.3225,1.3226,0,0,0,0,0,0,0,0,1.3089,1.3095,1.3143,1.3143,1.3144,1.3173,1.3168,1.3211,1.3174,1.3162,1.317,1.3169,1.32,1.3204,1.3214,1.3263,1.3264,1.3225,1.3227,1.3228,1.3229,0,0,0,0,0,0,0,1.3087,1.3093,1.316,1.3143,1.3144,1.314,1.3144,1.3176,1.3188,1.3163,1.3162,1.3167,1.32,1.3211,1.3215,1.3265,1.3225,1.3228,1.323,1.3231,1.3349,1.3351,0,0,0,0,0,0,1.3084,1.3091,1.3159,1.3161,1.3113,1.3143,1.3148,1.3165,1.3187,1.319,1.3168,1.3166,1.3207,1.3212,1.3217,1.3268,1.3228,1.3231,1.3233,1.3348,1.335,1.3351,0,0,0,0,0,0,1.3082,1.309,1.3157,1.3126,1.3134,1.3146,1.3165,1.3166,1.3178,1.3191,1.3193,1.3178,1.3206,1.3212,1.3249,1.327,1.3232,1.3235,1.3346,1.3348,1.335,1.3373,0,0,0,0,0,0,1.3079,1.3089,1.3107,1.3126,1.3136,1.319,1.3166,1.3168,1.3183,1.3181,1.3201,1.3203,1.3206,1.3245,1.3252,1.3273,1.3237,1.3344,1.3347,1.335,1.3371,1.3376,1.338,0,0,0,0,0,1.3076,1.3112,1.3108,1.3116,1.3158,1.3191,1.3196,1.3199,1.3185,1.3202,1.321,1.3203,1.3266,1.3249,1.3257,1.3279,1.3343,1.3346,1.3349,1.3368,1.3375,1.338,0,0,0,0,0,0,1.3094,1.3114,1.311,1.3154,1.3171,1.3189,1.3211,1.3206,1.3227,1.3224,1.3226,1.323,1.3268,1.3277,1.3257,1.3322,1.3303,1.3307,1.3314,1.332,1.3325,1.3321,1.324,0,0,0,0,0,1.3103,1.3129,1.3145,1.3182,1.3191,1.3199,1.3214,1.3214,1.3231,1.3239,1.325,1.3267,1.329,1.3306,1.3329,1.3372,1.3375,1.3391,1.3396,1.3399,1.3403,1.3425,1.3431,1.3362,1.3362,1.3361,0,0,1.3123,1.3137,1.3153,1.3186,1.3199,1.3224,1.3205,1.3234,1.3252,1.3243,1.3278,1.3287,1.3306,1.3345,1.3363,1.3354,1.3423,1.3404,1.3407,1.3408,1.3429,1.3435,1.3441,1.3364,1.3363,1.3363,0,0,1.317,1.3184,1.3215,1.3229,1.3249,1.3254,1.3262,1.328,1.3286,1.3321,1.3314,1.3336,1.3377,1.339,1.3402,1.3453,1.3446,1.3461,1.3485,1.3506,1.3512,1.3517,1.3533,1.3539,1.3465,1.3465,1.3465,0,1.3191,1.323,1.3232,1.326,1.3274,1.3267,1.3298,1.3311,1.3337,1.3346,1.3336,1.3386,1.3399,1.344,1.3452,1.3463,1.3471,1.3458,1.3511,1.3516,1.352,1.3536,1.3542,1.3466,1.3466,1.3466,1.3466,0,1.3254,1.328,1.3303,1.3328,1.3345,1.3375,1.338,1.3397,1.3395,1.3401,1.3436,1.3451,1.3475,1.3486,1.3485,1.3527,1.352,1.351,1.3491,1.3528,1.3543,1.3549,1.3468,1.3468,1.3467,1.3467,0,0,1.3314,1.3339,1.3348,1.3358,1.3379,1.34,1.3428,1.3452,1.3465,1.3484,1.3507,1.3541,1.3532,1.3545,1.3546,1.3564,1.3602,1.3552,1.3552,1.3559,1.3647,1.3653,1.366,1.3597,1.3599,1.36,1.3644,0,1.3362,1.3412,1.3414,1.346,1.3484,1.3476,1.3501,1.3516,1.3522,1.3543,1.3549,1.3573,1.356,1.3567,1.3586,1.3593,1.3619,1.359,1.3617,1.3618,1.3612,1.3668,1.3675,1.3717,1.365,1.3651,1.3652,0,1.3425,1.3444,1.3492,1.3508,1.3518,1.3541,1.3562,1.3582,1.3598,1.3601,1.3616,1.3613,1.3641,1.3621,1.3659,1.3639,1.3651,1.3656,1.3657,1.3659,1.3637,1.367,1.373,1.3736,1.3662,1.3661,1.366,0,1.3462,1.35,1.3533,1.3543,1.3563,1.3579,1.3588,1.3603,1.3616,1.3635,1.3644,1.3665,1.3677,1.3693,1.3696,1.3681,1.3733,1.3714,1.3735,1.3735,1.3745,1.3744,1.3807,1.3755,1.3755,1.3755,1.3755,0,1.3514,1.3543,1.355,1.357,1.3602,1.3604,1.3635,1.3643,1.3656,1.3677,1.3673,1.3692,1.3695,1.3715,1.3717,1.3747,1.3753,1.3755,1.3755,1.3755,1.3754,1.3761,1.3758,1.3756,1.3756,1.3756,1.3755,0,1.356,1.3566,1.3602,1.3618,1.3622,1.3645,1.3658,1.3677,1.3682,1.3709,1.3715,1.3723,1.3746,1.3751,1.3778,1.3779,1.3814,1.3812,1.3809,1.3808,1.3828,1.3826,1.3897,1.3906,1.3849,1.385,1.385,0,1.3593,1.3615,1.3633,1.3647,1.3656,1.3679,1.3692,1.3695,1.3709,1.3729,1.3745,1.3767,1.3785,1.3822,1.383,1.3851,1.3848,1.3872,1.3851,1.3849,1.3847,1.3845,1.3846,1.3875,1.3876,1.3876,1.3877,0,1.3649,1.3651,1.3671,1.3692,1.3709,1.3725,1.3741,1.3752,1.3757,1.3773,1.3796,1.381,1.3838,1.3859,1.388,1.3888,1.3883,1.3883,1.3889,1.3888,1.3884,1.3885,1.3818,1.3881,1.3881,1.388,1.388,1.388,1.3688,1.3707,1.3722,1.3745,1.3757,1.3771,1.3789,1.3796,1.3816,1.3839,1.3839,1.3864,1.3878,1.3905,1.3915,1.3934,1.3926,1.3935,1.3937,1.3938,1.3939,1.3882,1.3937,1.3937,1.3937,1.3937,1.3937,0,1.3743,1.3752,1.3773,1.3795,1.3812,1.3806,1.3823,1.3837,1.3859,1.3873,1.3891,1.3917,1.3938,1.3947,1.3968,1.3981,1.3979,1.3986,1.3984,1.3986,1.3946,1.3938,1.3987,1.3987,1.3987,1.3987,1.3987,1.3987,1.3773,1.3804,1.3807,1.3843,1.3852,1.3877,1.3887,1.3899,1.391,1.394,1.3957,1.3963,1.3975,1.3996,1.4014,1.4016,1.4023,1.4031,1.4032,1.3994,1.3989,1.3984,1.3977,1.4033,1.4033,1.407,1.4071,1.4071]},{"header":{"parameterUnit":"m.s-1","parameterCategory":1,"la1":30.2991,"la2":30.254,"lo1":-89.0895,"lo2":-89.0444,"dy":0.0017,"dx":0.0017,"nx":28,"ny":28,"refTime":"2024-07-31T09:00:00:Z","depth":0,"parameterNumber":3,"parameterNumberName":"V-component_of_WINDS"},"data":[0,0,0,0,0,0,0,0,0,0,0,0,0,0,0,0,0,0,0,0,0,0,0,0,0,0,0,0,0,0,0,0,0,0,0,0,0,0,0,0,0,0,0,0,0,0,0,0,0,0,0,0,0,0,0,0,0,0,4.0088,4.0087,0,4.0046,4.0045,4.0045,3.9961,3.996,3.9958,3.9956,3.9914,3.9915,3.9915,0,0,0,0,0,0,0,0,0,0,0,0,0,4.0095,4.0096,4.0088,4.0087,4.0087,4.0046,4.0045,4.0045,3.9962,3.9959,3.9957,3.9956,3.9914,3.9915,3.9915,0,0,0,0,0,0,0,0,0,0,0,0,0,4.0077,4.0096,4.0088,4.004,4.0035,4.0046,4.0045,4.0045,3.9962,3.9959,3.9957,3.9955,3.9914,3.9915,3.9915,3.9969,0,0,3.9917,3.9918,0,0,0,0,0,0,0,0,4.0078,4.0077,4.0048,4.0043,4.0038,4.0006,4.0033,4.0019,3.9963,3.999,3.9956,3.9953,3.9947,3.9945,3.9942,3.9967,3.9966,3.9917,3.9918,3.9918,3.9918,0,0,0,0,0,0,0,4.0079,4.0078,4.0071,4.0047,4.0042,4.0021,4.0015,4.003,3.9983,3.9987,3.9981,3.9977,3.9944,3.9942,3.9941,3.9965,3.9917,3.9918,3.9918,3.9919,4.003,4.0033,0,0,0,0,0,0,4.0087,4.0079,4.0072,4.007,4.0052,4.0023,4.0017,4.0019,3.9983,3.9975,3.9979,3.9974,3.9942,3.994,3.9939,3.9998,3.9918,3.9919,3.9919,4.0028,4.0031,4.0034,0,0,0,0,0,0,4.0088,4.0088,4.0074,4.0073,4.007,4.0025,4.0029,4.002,4.0017,3.9977,3.9968,3.9986,3.994,3.9938,3.9962,3.9996,3.9919,3.992,4.0025,4.0029,4.0032,4.0119,0,0,0,0,0,0,4.0089,4.0088,4.0108,4.0074,4.007,4.0098,4.0031,4.002,4.0019,4.0011,3.9981,3.9973,3.9938,3.9961,3.9963,3.9995,3.992,4.0021,4.0026,4.0031,4.0113,4.0125,4.0136,0,0,0,0,0,4.0089,4.0135,4.011,4.0109,4.0094,4.01,4.0098,4.0056,4.0022,4.0041,4.0015,3.9974,3.9992,3.9965,3.9965,3.9999,4.0019,4.0025,4.0031,4.0108,4.0123,4.0136,0,0,0,0,0,0,4.0175,4.013,4.0101,4.0137,4.0123,4.0086,4.011,4.0074,4.0069,4.0062,4.0011,4.0005,4.0035,4.0019,3.9989,4.0048,3.9999,4.0005,4.0057,4.0072,4.0083,4.0086,3.9921,0,0,0,0,0,4.0198,4.0207,4.0167,4.0202,4.0197,4.0155,4.0156,4.0125,4.0108,4.0102,4.0077,4.0063,4.0065,4.0067,4.0067,4.011,4.0102,4.0134,4.0145,4.0155,4.0161,4.0181,4.0194,4.0053,4.0053,4.0052,0,0,4.0246,4.0222,4.0231,4.0219,4.0204,4.0214,4.015,4.0164,4.017,4.0104,4.0124,4.0106,4.0086,4.012,4.0133,4.0107,4.0198,4.0162,4.017,4.0171,4.0188,4.0202,4.0213,4.0057,4.0056,4.0055,0,0,4.0338,4.0322,4.0349,4.0335,4.0314,4.0285,4.0292,4.026,4.0245,4.0265,4.0215,4.0222,4.0227,4.0215,4.0209,4.0296,4.0257,4.0297,4.0357,4.0378,4.0389,4.0398,4.0428,4.0439,4.0303,4.0303,4.0304,0,4.0401,4.0413,4.0368,4.0384,4.0379,4.0319,4.0346,4.0336,4.0316,4.0314,4.0285,4.029,4.0272,4.0301,4.0322,4.032,4.0325,4.03,4.0391,4.04,4.0408,4.0436,4.0447,4.0308,4.0308,4.0307,4.0307,0,4.049,4.05,4.0525,4.0506,4.0504,4.0526,4.0483,4.0488,4.0457,4.0431,4.0452,4.0429,4.0422,4.0427,4.0397,4.0451,4.0436,4.04,4.0349,4.0427,4.0452,4.0463,4.0315,4.0314,4.0312,4.0311,0,0,4.0636,4.0591,4.06,4.059,4.0562,4.0568,4.0587,4.058,4.0584,4.0572,4.0586,4.0591,4.0557,4.0551,4.0519,4.0538,4.0606,4.0499,4.0498,4.0519,4.0663,4.0689,4.0702,4.0581,4.0582,4.0584,4.0664,0,4.072,4.0749,4.0708,4.0746,4.0754,4.0697,4.0713,4.0697,4.0674,4.0677,4.0651,4.0655,4.061,4.0606,4.0621,4.0595,4.0634,4.0588,4.0592,4.0593,4.0598,4.0716,4.0744,4.0821,4.0674,4.0675,4.0676,0,4.0823,4.0815,4.0854,4.0822,4.0824,4.0839,4.0829,4.0832,4.0813,4.0794,4.0787,4.0749,4.0765,4.0716,4.0736,4.0706,4.0705,4.0692,4.0694,4.0692,4.0639,4.0716,4.0844,4.0855,4.0692,4.069,4.0689,0,4.0924,4.0923,4.0946,4.0939,4.0903,4.0915,4.09,4.0878,4.0876,4.0867,4.0865,4.0859,4.0855,4.0851,4.0812,4.078,4.0836,4.0785,4.0821,4.0822,4.0835,4.0834,4.0964,4.0836,4.0836,4.0836,4.0835,0,4.1023,4.1048,4.099,4.1004,4.1031,4.0984,4.1011,4.0991,4.0972,4.098,4.0931,4.094,4.0888,4.0892,4.0861,4.0882,4.0881,4.0866,4.0857,4.087,4.0872,4.0868,4.0861,4.0839,4.0838,4.0837,4.0837,0,4.1139,4.1102,4.1122,4.1086,4.1077,4.1098,4.1067,4.1078,4.1051,4.1062,4.1062,4.1021,4.1022,4.0982,4.0976,4.0956,4.0989,4.0971,4.0996,4.099,4.1027,4.1024,4.1158,4.1173,4.1037,4.1039,4.104,0,4.1204,4.1222,4.1188,4.119,4.1177,4.1181,4.1179,4.1133,4.1132,4.1111,4.1125,4.1122,4.1117,4.1121,4.109,4.1085,4.1066,4.1113,4.1065,4.1076,4.1065,4.1064,4.1065,4.1123,4.1125,4.1127,4.1128,0,4.1323,4.1303,4.1302,4.1293,4.1292,4.1283,4.1271,4.1276,4.1226,4.1227,4.1228,4.1224,4.1217,4.1214,4.1203,4.1187,4.1149,4.1143,4.1151,4.1163,4.1176,4.1169,4.1022,4.114,4.1139,4.1138,4.1137,4.1137,4.1415,4.1428,4.1405,4.1405,4.1391,4.1381,4.1389,4.1363,4.1362,4.1353,4.1326,4.1331,4.1309,4.129,4.1278,4.128,4.1257,4.1268,4.1271,4.1274,4.1281,4.1177,4.1278,4.1278,4.1277,4.1277,4.1277,0,4.153,4.1512,4.1513,4.1497,4.1497,4.1461,4.1445,4.1447,4.1452,4.1436,4.1432,4.1431,4.1428,4.1397,4.139,4.1398,4.138,4.1398,4.1396,4.1393,4.1303,4.1297,4.1412,4.1412,4.1412,4.1412,4.1412,4.1412,4.159,4.161,4.1587,4.1599,4.1581,4.1585,4.158,4.157,4.1556,4.1558,4.1555,4.1535,4.1512,4.1503,4.1498,4.1489,4.1488,4.1511,4.1496,4.1413,4.14,4.1387,4.138,4.1512,4.1512,4.1585,4.1586,4.1587]}]]